CTV679 RKPC-RKSS

Flight info

Callsign CTV679
Flight time 0h 50m
Altitude 26000
Route KAMIT2E KAMIT Y722 OLMEN OLMEN2U
Aircraft A320/M-SDE3FGHIRWY/LB1

Departure

Time 2025-09-05 15:32
Airport Jeju International Airport (RKPC)

Arrival

Time 2025-09-05 16:22
Airport Gimpo International Airport (RKSS)
Time Latitude Longitude Altitude Speed Heading
2025-09-05 14:43 33.50637 126.49057 94 ft 0 kts 151°
2025-09-05 15:19 33.50652 126.49047 94 ft 2 kts 152°
2025-09-05 15:19 33.50667 126.49037 92 ft 2 kts 150°
2025-09-05 15:20 33.50710 126.49009 94 ft 2 kts 155°
2025-09-05 15:20 33.50735 126.49022 93 ft 2 kts 238°
2025-09-05 15:21 33.50740 126.49031 93 ft 0 kts 240°
2025-09-05 15:22 33.50738 126.49026 93 ft 4 kts 240°
2025-09-05 15:22 33.50673 126.48894 93 ft 7 kts 238°
2025-09-05 15:23 33.50597 126.48754 95 ft 10 kts 238°
2025-09-05 15:23 33.50556 126.48674 93 ft 13 kts 238°
2025-09-05 15:24 33.50629 126.48465 95 ft 14 kts 255°
2025-09-05 15:24 33.50470 126.48157 95 ft 31 kts 238°
2025-09-05 15:25 33.50226 126.47683 95 ft 33 kts 238°
2025-09-05 15:25 33.49983 126.47209 93 ft 33 kts 238°
2025-09-05 15:26 33.49912 126.46920 92 ft 0 kts 330°
2025-09-05 15:29 33.49923 126.46913 92 ft 4 kts 330°
2025-09-05 15:30 33.50036 126.46930 90 ft 9 kts 58°
2025-09-05 15:30 33.50299 126.47444 93 ft 94 kts 58°
2025-09-05 15:30 33.50747 126.48315 94 ft 149 kts 58°
2025-09-05 15:31 33.51966 126.50748 1003 ft 172 kts 59°
2025-09-05 15:32 33.54799 126.54195 1977 ft 228 kts 41°
2025-09-05 15:32 33.57416 126.56982 2753 ft 270 kts 43°
2025-09-05 15:33 33.60238 126.60063 4391 ft 277 kts 43°
2025-09-05 15:33 33.63096 126.63232 5978 ft 286 kts 43°
2025-09-05 15:33 33.64586 126.64897 6737 ft 291 kts 43°
2025-09-05 15:34 33.69134 126.69898 8941 ft 303 kts 35°
2025-09-05 15:34 33.70997 126.71101 9650 ft 307 kts 19°
2025-09-05 15:35 33.75364 126.71922 10312 ft 340 kts
2025-09-05 15:36 33.83062 126.72682 10987 ft 390 kts
2025-09-05 15:36 33.88529 126.73249 12096 ft 398 kts
2025-09-05 15:37 33.94093 126.73841 13186 ft 405 kts
2025-09-05 15:37 33.99741 126.74441 14184 ft 411 kts
2025-09-05 15:38 34.05474 126.75048 15084 ft 415 kts
2025-09-05 15:38 34.11264 126.75659 15973 ft 420 kts
2025-09-05 15:38 34.14183 126.75966 16401 ft 422 kts
2025-09-05 15:39 34.20027 126.76578 17242 ft 426 kts
2025-09-05 15:40 34.28968 126.77531 18402 ft 434 kts
2025-09-05 15:40 34.35012 126.78171 19046 ft 439 kts
2025-09-05 15:41 34.41146 126.78830 19676 ft 445 kts
2025-09-05 15:41 34.47347 126.79494 20294 ft 450 kts
2025-09-05 15:42 34.53617 126.80160 20899 ft 455 kts
2025-09-05 15:42 34.59958 126.80840 21510 ft 460 kts
2025-09-05 15:42 34.63152 126.81182 21800 ft 462 kts
2025-09-05 15:43 34.69588 126.81873 22349 ft 467 kts
2025-09-05 15:44 34.79319 126.82909 23170 ft 473 kts
2025-09-05 15:44 34.85899 126.83611 23679 ft 477 kts
2025-09-05 15:45 34.92524 126.84322 24124 ft 480 kts
2025-09-05 15:45 34.99192 126.85044 24573 ft 482 kts
2025-09-05 15:46 35.05907 126.85773 24929 ft 484 kts
2025-09-05 15:46 35.12612 126.86504 24972 ft 484 kts
2025-09-05 15:47 35.22659 126.87595 24972 ft 483 kts
2025-09-05 15:48 35.32697 126.88691 24971 ft 483 kts
2025-09-05 15:48 35.39386 126.89413 24966 ft 482 kts
2025-09-05 15:49 35.46031 126.90129 24964 ft 482 kts
2025-09-05 15:49 35.52712 126.90861 24964 ft 482 kts
2025-09-05 15:50 35.59402 126.91598 24964 ft 482 kts
2025-09-05 15:50 35.62740 126.91962 24958 ft 482 kts
2025-09-05 15:50 35.69424 126.92691 24951 ft 482 kts
2025-09-05 15:51 35.76113 126.93427 24952 ft 482 kts
2025-09-05 15:52 35.86138 126.94532 24949 ft 482 kts
2025-09-05 15:52 35.92830 126.95266 24949 ft 482 kts
2025-09-05 15:53 35.99508 126.96011 24948 ft 482 kts
2025-09-05 15:53 36.06185 126.96764 24943 ft 481 kts
2025-09-05 15:54 36.12815 126.97501 24945 ft 481 kts
2025-09-05 15:54 36.16190 126.97868 24939 ft 480 kts
2025-09-05 15:54 36.22798 126.98589 24941 ft 480 kts
2025-09-05 15:55 36.29445 126.99332 24933 ft 480 kts
2025-09-05 15:56 36.39432 127.00341 24933 ft 478 kts 358°
2025-09-05 15:56 36.46064 127.00086 24935 ft 477 kts 356°
2025-09-05 15:57 36.52721 126.99840 24580 ft 484 kts 356°
2025-09-05 15:57 36.59497 126.99604 24133 ft 477 kts 356°
2025-09-05 15:58 36.65922 126.99386 23706 ft 447 kts 356°
2025-09-05 15:58 36.68989 126.99307 23494 ft 434 kts 360°
2025-09-05 15:59 36.76903 127.02813 22737 ft 389 kts 37°
2025-09-05 15:59 36.78881 127.05024 22491 ft 383 kts 41°
2025-09-05 16:00 36.84752 127.11786 21327 ft 378 kts 41°
2025-09-05 16:00 36.88582 127.16175 19974 ft 371 kts 41°
2025-09-05 16:01 36.92320 127.20477 18703 ft 364 kts 41°
2025-09-05 16:01 36.96002 127.24735 17399 ft 357 kts 41°
2025-09-05 16:02 36.99604 127.28913 16127 ft 350 kts 41°
2025-09-05 16:02 37.01383 127.30973 15505 ft 347 kts 41°
2025-09-05 16:02 37.04894 127.35038 14705 ft 339 kts 41°
2025-09-05 16:03 37.08349 127.39057 14425 ft 338 kts 41°
2025-09-05 16:04 37.14045 127.43964 14042 ft 330 kts 12°
2025-09-05 16:04 37.18529 127.44400 13744 ft 324 kts 356°
2025-09-05 16:05 37.22820 127.43131 13440 ft 313 kts 326°
2025-09-05 16:05 37.25817 127.39441 13170 ft 304 kts 301°
2025-09-05 16:05 37.27020 127.37261 13037 ft 303 kts 301°
2025-09-05 16:06 37.29424 127.32913 12763 ft 302 kts 301°
2025-09-05 16:06 37.31819 127.28583 12497 ft 301 kts 302°
2025-09-05 16:07 37.34208 127.24267 12228 ft 300 kts 301°
2025-09-05 16:08 37.37161 127.16934 11797 ft 328 kts 280°
2025-09-05 16:08 37.38099 127.11681 11497 ft 295 kts 280°
2025-09-05 16:09 37.38970 127.06709 11220 ft 292 kts 279°
2025-09-05 16:09 37.39401 127.04220 10985 ft 291 kts 279°
2025-09-05 16:09 37.40259 126.99258 10339 ft 291 kts 279°
2025-09-05 16:10 37.41114 126.94290 9645 ft 288 kts 279°
2025-09-05 16:10 37.42489 126.89605 8720 ft 284 kts 291°
2025-09-05 16:11 37.44096 126.85064 8365 ft 283 kts 290°
2025-09-05 16:12 37.46417 126.78267 7788 ft 280 kts 287°
2025-09-05 16:12 37.47701 126.73658 7344 ft 278 kts 285°
2025-09-05 16:13 37.48690 126.69829 6970 ft 274 kts 278°
2025-09-05 16:13 37.49221 126.65113 6388 ft 271 kts 275°
2025-09-05 16:14 37.49920 126.60469 5786 ft 271 kts 289°
2025-09-05 16:14 37.52209 126.56668 5166 ft 277 kts 312°
2025-09-05 16:14 37.53997 126.54448 4860 ft 261 kts 311°
2025-09-05 16:15 37.56347 126.52352 4371 ft 246 kts 347°
2025-09-05 16:16 37.60492 126.55296 4015 ft 231 kts 46°
2025-09-05 16:16 37.62706 126.58058 3755 ft 214 kts 45°
2025-09-05 16:17 37.64753 126.60586 3288 ft 202 kts 46°
2025-09-05 16:17 37.66308 126.63422 2728 ft 197 kts 81°
2025-09-05 16:18 37.65877 126.66604 2403 ft 181 kts 128°
2025-09-05 16:18 37.65061 126.67771 2196 ft 177 kts 140°
2025-09-05 16:18 37.63389 126.69877 1762 ft 157 kts 140°
2025-09-05 16:19 37.61220 126.72607 1190 ft 142 kts 139°
2025-09-05 16:20 37.59828 126.74358 820 ft 140 kts 138°
2025-09-05 16:20 37.58435 126.76118 449 ft 142 kts 135°
2025-09-05 16:21 37.57057 126.77837 95 ft 140 kts 136°
2025-09-05 16:21 37.56211 126.78903 58 ft 28 kts 133°
2025-09-05 16:21 37.56075 126.79086 58 ft 29 kts 133°
2025-09-05 16:22 37.55952 126.79455 66 ft 19 kts 94°
2025-09-05 16:22 37.55910 126.79829 63 ft 15 kts 99°
2025-09-05 16:23 37.55895 126.79966 67 ft 5 kts 88°
2025-09-05 16:24 37.55962 126.80068 57 ft 1 kts 45°
2025-09-05 16:24 37.55966 126.80073 67 ft 0 kts 45°